ORBCOMM FM09 [-]

Last updated on Fri Dec 29 2023 00:02:53 GMT+0000 (Coordinated Universal Time)

1 25116U 97084E 23362.25260441 .00002224 00000+0 72174-3 0 9996 2 25116 45.0160 58.7809 0005095 355.1459 4.9341 14.41528030363934
UTC large
Height (km)
Speed (km/s)
/
Latitude / Longitude
Inclination (degrees)
Orbital Period (minutes)
Azimuth
Elevation
Range (km)
Doppler Factor

Next 0 passes for location: London (51.5072 / 0.1276)

Sorry there are no passes over London.
ORBCOMM FM09 [-]